User: anonymous   Login
Location: Unspecified
(0.0000°N, 0.0000°E)
Time: 00:20:37
(UTC+00:00)
Language:

ATEX - Orbit

View from above orbital plane
View from above orbital plane
View from above satellite
View from above satellite

Ground track
Ground track

The orbit data is extracted from the following two-line orbital elements,

1 25615U 98055C   17066.17822328 0.00000090  00000-0  25862-4 0    08
2 25615  84.9851 214.4872 0008000  79.1636 280.8362 14.44936330    00
Epoch (UTC): 07 March 2017 04:16:38
Eccentricity: 0.0008000
inclination: 84.9851°
perigee height: 736 km
apogee height: 748 km
right ascension of ascending node: 214.4872°
argument of perigee: 79.1636°
revolutions per day: 14.44936330
mean anomaly at epoch: 280.8362°
orbit number at epoch: 0

The dashed part of the orbit path shows where the satellite is in the earth's shadow,  

DLR